Home > Weather > Port Sudan > Past weeks

Flag for Sudan Past Weather in Port Sudan, Sudan — Yesterday and Last 2 Weeks

Now
91 °F

Passing clouds.


Feels Like: 105 °F
Forecast: 87 / 108 °F
Wind: 7 mph from West

Location: Jeddah King Abdul Aziz International Airport

Current Time: Jul 23, 2016 at 10:20:10 PM

Latest Report: Jul 23, 2016 at 10:00 PM


Visibility: N/A

Pressure: 29.47 "Hg

Humidity: 63%

Dew Point: 77 °F

Location of Port SudanLocation

Past Weather in Port Sudan — Graph

°F

Port Sudan Temperature Yesterday

Maximum temperature yesterday: 97 °F (at 12:00 PM)
Minimum temperature yesterday: 86 °F (at 6:00 AM)
Average temperature yesterday: 92 °F

High & Low Weather Summary for the Past Weeks

 TemperatureHumidityPressure
High108 °F (Jul 16, 1:00 PM)79% (Jul 13, 6:00 AM)29.71 "Hg (Jul 13, 6:00 AM)
Low82 °F (Jul 21, 6:00 AM)12% (Jul 16, 2:00 PM)29.47 "Hg (Jul 23, 2:00 PM)
Average94 °F46%29.62 "Hg
* Reported Jul 8 9:00 PM — Jul 23 9:00 PM, Port Sudan, Weather by CustomWeather, © 2016

Note: Actual official high and low records may vary slightly from our data, if they occured in-between our weather recording intervals... More about our weather records

Advertising

Port Sudan Weather History for the Previous 24 Hours

Scroll right to see more
 ConditionsComfort  
Time TempWeatherWind HumidityBarometerVisibility
9:00 PM
Sat, Jul 23
91 °FPassing clouds.5 mph67%29.50 "HgN/A
8:00 PM91 °FPassing clouds.5 mph67%29.47 "HgN/A
7:00 PM93 °FScattered clouds.8 mph63%29.47 "Hg5 mi
6:00 PM93 °FPartly sunny.9 mph63%29.47 "Hg5 mi
5:00 PM95 °FPartly sunny.12 mph60%29.47 "Hg5 mi
4:00 PM97 °FPartly sunny.12 mph50%29.47 "Hg5 mi
3:00 PM99 °FPartly sunny.9 mph47%29.47 "Hg5 mi
2:00 PM99 °FSunny.7 mph42%29.47 "Hg10 mi
1:00 PM97 °FSunny.12 mph44%29.50 "Hg10 mi
12:00 PM97 °FSunny.12 mph44%29.53 "Hg10 mi
11:00 AM95 °FSunny.12 mph53%29.53 "Hg10 mi
10:00 AM95 °FBroken clouds.6 mph53%29.53 "HgN/A
9:00 AM93 °FBroken clouds.6 mph53%29.53 "HgN/A
8:00 AM91 °FBroken clouds.3 mph63%29.53 "HgN/A
7:00 AM90 °FSunny.No wind67%29.53 "Hg10 mi
6:00 AM88 °FSunny.No wind75%29.53 "Hg10 mi
5:00 AM86 °FClear.5 mph79%29.53 "Hg10 mi
4:00 AM88 °FClear.7 mph75%29.53 "Hg10 mi
3:00 AM88 °FClear.7 mph70%29.53 "Hg10 mi
2:00 AM90 °FClear.5 mph67%29.56 "Hg10 mi
1:00 AM90 °FClear.No wind63%29.56 "Hg10 mi
12:00 AM93 °FClear.No wind49%29.59 "Hg10 mi
11:00 PM
Fri, Jul 22
93 °FClear.No wind49%29.59 "Hg10 mi
10:00 PM93 °FClear.No wind49%29.59 "Hg10 mi
Weather by CustomWeather, © 2016

See weather overviewHow to use our weather pages